Location: *
(49.7115°N, 15.0136°E)
Time: 00:25:29
(UTC+00:00)

STARLINK-49 - Pass Details

Date: 27 February 2020
Orbit: 529 x 530 km, 53.0° (Epoch: 09 April)

Event Time Altitude Azimuth Distance (km) Brightness Sun altitude
Rises 17:19:55 0° 268° (W) 2,666 9.8 -7.5°
Reaches altitude 10° 17:22:10 10° 273° (W) 1,778 7.9 -7.9°
Maximum altitude 17:26:08 55° 352° (N) 641 4.0 -8.5°
Enters shadow 17:29:54 11° 71° (ENE) 1,702 5.5 -9.1°
